STARLINK-11272 [DTC] (60723 NORAD) Tracking and Keplerian Element Data

This shows tracking and keplerian element data for the satellite.

Feedback or suggestion? Click here.




ElementValue
Catalog60723
NameSTARLINK-11272 [DTC]
Epoch Orbit828
Epoch Day286.83193917
Epoch Year2024
RAAN124.55
Inclination53.1582
Eccentricity9.41E-05
Argument of Perigee115.6909
Mean Anonmoly244.4206
Mean Motion15.69751439
Decay Rate0.00015271
L11 60723U 24152D 24286.83193917 .00015271 00000+0 13045-3 0 9996
L22 60723 53.1582 124.5500 0000941 115.6909 244.4206 15.69751439 8286



Live tracking and technical data element details for STARLINK-11272 [DTC] (NORAD 60723). STARLINK-11272 [DTC] can be tracked NOW for your location showing map with azimuth and elevation plus other details from your city location.







IsCatalogInMostPopularTable: catalog: 60723, numindb: 8
Update: records affected: 1



GetName: 60723 STARLINK-11272 [DTC]

Hit Count: updated at: Wed, 04 Dec 2024 19:01:44 GMT